GPS BIII-8 (PRN 21) (64202 NORAD) Tracking and Keplerian Element Data

This shows tracking and keplerian element data for the satellite.

Feedback or suggestion? Click here.




ElementValue
Catalog64202
NameGPS BIII-8 (PRN 21)
Epoch Orbit428
Epoch Day354.09964839
Epoch Year2025
RAAN38.344
Inclination55.1107
Eccentricity0.0005722
Argument of Perigee309.6695
Mean Anonmoly54.4969
Mean Motion2.00557984
Decay Rate-6.1E-07
L11 64202U 25116A 25354.09964839 -.00000061 00000+0 00000+0 0 9992
L22 64202 55.1107 38.3440 0005722 309.6695 54.4969 2.00557984 4282



Live tracking and technical data element details for GPS BIII-8 (PRN 21) (NORAD 64202). GPS BIII-8 (PRN 21) can be tracked NOW for your location showing map with azimuth and elevation plus other details from your city location.







IsCatalogInMostPopularTable: catalog: 64202, numindb: 22
Update: records affected: 1



GetName: 64202 GPS BIII-8 (PRN 21)

Hit Count: updated at: Mon, 20 Apr 2026 10:32:51 GMT